OBJECT Q, 57180

Orbit data source: Space-Track

You're viewing an uncataloged RSO

Recently launched and/or uncataloged RSOs may have evolving metadata. Metadata may include the following, but is not limited to: Owner, Manufacturer, Bus, Motor, and Mission.

OBJECT Q, 57180 is a satellite in SSO that was launched on Tue, 27 Jun 2023 UTC via a SOYUZ-2-1B launch vehicle from the Vostochny Cosmodrome (VOSTO). Unknown objects in Earth's orbit typically refer to objects detected orbiting the Earth but have not yet been identified or cataloged. These objects could be anything from previously untracked satellites, spent rocket stages, debris from satellite collisions, or even natural meteoroids temporarily captured by Earth's gravity.

Loading next visibility...
Identifier
57180, 2023-091Q
Orbit
SSO
Country
Flag of TBDTBD
Related business
Manufacturer
Sputniks
Mission
Operational Amateur Science
Bus & Motor
CUBESAT 3U, Unknown motor
Mass
5 kg wet, 5 kg dry
Launch date (UTC)
2023-06-27 (3 years ago)
Launch vehicle
SOYUZ-2-1B
Launch site
Vostochny Cosmodrome (VOSTO)
Object type
Unknown
Shape & HBR
Box, 0.2 m
Radar Cross Section
0.035 m², Medium (>0.1 m² and < 1m²)

Expand to show TLE details & history
Last TLE update: 9 hours ago

TLE from 9 hours ago
0 OBJECT Q
1 57180U 23091Q   26256.89646691  .00008352  00000-0  29526-3 0  9991
2 57180  97.4992 321.0505 0012187 141.0666 219.1454 15.29371496177842
Epoch: 2026-09-13T21:30Z
TLE epoch observation values (Epoch: 2026-09-13T21:30:54.741Z)
Latitude
0.00002°
Longitude
5.43787°
Altitude
487.276 km
Speed
7.618 km/s
True Right ascension
21h 24m 12s
True Declination
0° 00' 00"
Sunlit
Object was in full shadow at epoch
Visualization orbit readout
Latitude
Unknown
Longitude
Unknown
Altitude
Unknown
Speed
Unknown
Apparent Right ascension
Unknown
Apparent Declination
Unknown
Sunlit
N/A
Visualization observer readout
Local Sidereal Time
22:41:07
Azimuth
Unknown
Elevation
Unknown
Doppler factor
Unknown
Orbital elements
Apogee altitude
482.999 km
Perigee altitude
466.296 km
Semi-major axis
6,852.784 km
Eccentricity
0.00122
Inclination
97.4992°
RAAN
321.0505°
Arg. of periapsis
141.0666°
True anomaly
219.05734°
Mean anomaly
219.1454°
Eccentric anomaly
219.10136°
Mean motion
3.82598 °/min
Orbital period
94.09 mins
BSTAR
0.00029526
Loading maneuver chart data...
Computing Atmospheric mass density...
Loading historical data...
Loading historical data...
Loading historical data...
Loading historical data...
Loading historical data...
Loading historical data...
Loading historical data...

Documentation

Showing up to 5 results
|